NCA4091 ZUUU-RJFU

Flight info

Callsign NCA4091
Flight time N/A
Altitude 35100
Route UBRA9W UBRAB B213 WHA R343 PK A593 SADLI Y590 BEDAR Y591 FUE Y23 KASTE
Aircraft B742/H-SDFGHIRWX/LB1

Departure

Time 2026-04-29 18:45
Airport Chengdu Shuangliu International Airport (ZUUU)

Arrival

Time N/A
Airport Nagasaki Airport (RJFU)
Time Latitude Longitude Altitude Speed Heading
2026-04-29 18:38 30.54890 103.95446 1691 ft 0 kts 112°
2026-04-29 18:39 30.54890 103.95447 1691 ft 0 kts 112°
2026-04-29 18:39 30.54890 103.95449 1691 ft 0 kts 102°
2026-04-29 18:39 30.54890 103.95454 1691 ft 0 kts 84°
2026-04-29 18:39 30.54891 103.95458 1691 ft 0 kts 67°
2026-04-29 18:40 30.54904 103.95475 1691 ft 4 kts 36°
2026-04-29 18:40 30.54943 103.95486 1691 ft 8 kts 360°
2026-04-29 18:40 30.55037 103.95491 1691 ft 17 kts
2026-04-29 18:40 30.55148 103.95507 1691 ft 13 kts 343°
2026-04-29 18:41 30.55231 103.95406 1691 ft 8 kts 293°
2026-04-29 18:41 30.55261 103.95318 1691 ft 14 kts 290°
2026-04-29 18:42 30.55305 103.95191 1691 ft 19 kts 291°
2026-04-29 18:42 30.55342 103.95059 1691 ft 12 kts 266°
2026-04-29 18:42 30.55307 103.95005 1691 ft 6 kts 212°
2026-04-29 18:42 30.55254 103.94980 1691 ft 11 kts 201°
2026-04-29 18:43 30.55160 103.94936 1691 ft 16 kts 201°
2026-04-29 18:43 30.55067 103.94896 1691 ft 11 kts 199°
2026-04-29 18:43 30.55002 103.94910 1691 ft 7 kts 126°
2026-04-29 18:43 30.54979 103.94975 1691 ft 10 kts 112°
2026-04-29 18:44 30.54930 103.95046 1691 ft 10 kts 163°
2026-04-29 18:44 30.54883 103.95033 1691 ft 0 kts 203°
2026-04-29 18:44 30.54845 103.95014 1691 ft 30 kts 203°
2026-04-29 18:45 30.54328 103.94775 1691 ft 126 kts 201°
2026-04-29 18:45 30.53300 103.94302 2027 ft 175 kts 201°
2026-04-29 18:45 30.52101 103.93750 2751 ft 200 kts 201°
2026-04-29 18:45 30.50724 103.93196 3654 ft 219 kts 186°
2026-04-29 18:46 30.49195 103.93137 4680 ft 230 kts 182°
2026-04-29 18:46 30.47594 103.93009 5755 ft 240 kts 186°
2026-04-29 18:46 30.45848 103.92799 6502 ft 265 kts 187°
2026-04-29 18:46 30.43944 103.92535 7250 ft 288 kts 188°
2026-04-29 18:47 30.41950 103.92248 8347 ft 298 kts 188°
2026-04-29 18:47 30.39873 103.91945 9406 ft 294 kts 188°
2026-04-29 18:47 30.37835 103.91647 9883 ft 299 kts 188°
2026-04-29 18:47 30.35758 103.91342 10229 ft 302 kts 188°
2026-04-29 18:48 30.33677 103.91341 10482 ft 300 kts 172°
2026-04-29 18:48 30.31632 103.92172 10862 ft 320 kts 152°
2026-04-29 18:48 30.29835 103.93780 11281 ft 342 kts 134°
2026-04-29 18:48 30.28428 103.96069 11695 ft 361 kts 117°
2026-04-29 18:49 30.27611 103.98841 12393 ft 370 kts 100°
2026-04-29 18:49 30.27493 104.01823 13265 ft 372 kts 84°
2026-04-29 18:49 30.28070 104.04716 14041 ft 374 kts 68°
2026-04-29 18:49 30.29296 104.07346 14758 ft 377 kts 52°
2026-04-29 18:50 30.31099 104.09522 15491 ft 376 kts 36°
2026-04-29 18:50 30.33306 104.11083 16241 ft 375 kts 24°
2026-04-29 18:50 30.35683 104.12311 17014 ft 375 kts 20°
2026-04-29 18:50 30.38075 104.13477 17770 ft 375 kts 20°
2026-04-29 18:51 30.40517 104.14687 18376 ft 381 kts 20°
2026-04-29 18:51 30.42928 104.15911 18887 ft 387 kts 20°
2026-04-29 18:51 30.45424 104.17196 19327 ft 394 kts 20°
2026-04-29 18:51 30.47928 104.18495 19760 ft 397 kts 20°
2026-04-29 18:52 30.50457 104.19808 20189 ft 400 kts 20°
2026-04-29 18:52 30.52997 104.21129 20620 ft 404 kts 19°
2026-04-29 18:52 30.55580 104.22472 21055 ft 407 kts 19°
2026-04-29 18:52 30.58163 104.23816 21483 ft 410 kts 19°
2026-04-29 18:53 30.60801 104.25190 21914 ft 413 kts 19°
2026-04-29 18:53 30.63406 104.26546 22349 ft 418 kts 19°
2026-04-29 18:53 30.66055 104.27927 22780 ft 419 kts 18°
2026-04-29 18:53 30.68718 104.29316 23225 ft 422 kts 18°
2026-04-29 18:54 30.71431 104.30731 23672 ft 423 kts 18°
2026-04-29 18:54 30.74100 104.32124 24123 ft 425 kts 18°
2026-04-29 18:54 30.76810 104.33541 24584 ft 426 kts 18°
2026-04-29 18:54 30.79532 104.34964 25055 ft 427 kts 18°
2026-04-29 18:55 30.82215 104.36372 25505 ft 430 kts 19°
2026-04-29 18:55 30.84821 104.38222 25970 ft 444 kts 32°
2026-04-29 18:55 30.87031 104.40747 26437 ft 459 kts 45°
2026-04-29 18:55 30.88777 104.43896 26904 ft 472 kts 57°
2026-04-29 18:56 30.89970 104.47501 27362 ft 483 kts 67°
2026-04-29 18:56 30.90862 104.51283 27830 ft 490 kts 70°
2026-04-29 18:56 30.91709 104.55146 28296 ft 495 kts 70°
2026-04-29 18:56 30.92580 104.58989 28755 ft 496 kts 69°
2026-04-29 18:57 30.93517 104.62907 29226 ft 499 kts 68°
2026-04-29 18:57 30.94484 104.66792 29694 ft 503 kts 68°
2026-04-29 18:57 30.95463 104.70700 30157 ft 506 kts 68°
2026-04-29 18:57 30.96453 104.74616 30617 ft 510 kts 67°
2026-04-29 18:58 30.97472 104.78605 31084 ft 513 kts 67°
2026-04-29 18:58 30.98498 104.82595 31549 ft 516 kts 66°
2026-04-29 18:58 30.99532 104.86602 32013 ft 520 kts 66°
2026-04-29 18:58 31.00534 104.90655 32475 ft 527 kts 71°
2026-04-29 18:59 31.01019 104.94887 32932 ft 540 kts 83°
2026-04-29 18:59 31.00802 104.99298 33419 ft 551 kts 95°
2026-04-29 18:59 30.99873 105.03650 33939 ft 559 kts 108°
2026-04-29 18:59 30.98380 105.07851 34402 ft 564 kts 114°
2026-04-29 19:00 30.96646 105.11958 34838 ft 570 kts 117°
2026-04-29 19:00 30.94837 105.16097 35127 ft 578 kts 117°
2026-04-29 19:00 30.93023 105.20322 35179 ft 589 kts 116°
2026-04-29 19:00 30.91244 105.24593 35183 ft 595 kts 115°
2026-04-29 19:01 30.87714 105.33374 35185 ft 596 kts 114°
2026-04-29 19:01 30.84890 105.42320 35182 ft 591 kts 98°
2026-04-29 19:02 30.84306 105.50171 35185 ft 586 kts 85°
2026-04-29 19:02 30.84675 105.61144 35182 ft 582 kts 82°
2026-04-29 19:03 30.85048 105.70570 35182 ft 586 kts 83°
2026-04-29 19:03 30.85276 105.80016 35183 ft 585 kts 84°
2026-04-29 19:04 30.85483 105.89455 35181 ft 588 kts 83°
2026-04-29 19:04 30.85700 105.98951 35179 ft 587 kts 83°
2026-04-29 19:05 30.85913 106.08392 35187 ft 588 kts 83°
2026-04-29 19:05 30.86122 106.17845 35186 ft 585 kts 83°
2026-04-29 19:06 30.86325 106.27312 35187 ft 586 kts 83°
2026-04-29 19:07 30.86614 106.41522 35191 ft 587 kts 83°
2026-04-29 19:07 30.86796 106.50909 35188 ft 583 kts 83°
2026-04-29 19:08 30.86975 106.60404 35184 ft 585 kts 83°
2026-04-29 19:08 30.87136 106.69888 35196 ft 589 kts 84°
2026-04-29 19:09 30.87254 106.79362 35190 ft 589 kts 84°
2026-04-29 19:09 30.87394 106.88886 35191 ft 589 kts 84°
2026-04-29 19:10 30.87546 106.98383 35197 ft 590 kts 83°
2026-04-29 19:10 30.87687 107.07877 35188 ft 586 kts 83°
2026-04-29 19:11 30.87828 107.17370 35191 ft 591 kts 83°
2026-04-29 19:11 30.87956 107.26907 35190 ft 587 kts 84°
2026-04-29 19:12 30.88082 107.36455 35192 ft 590 kts 84°
2026-04-29 19:12 30.88196 107.45932 35181 ft 589 kts 83°
2026-04-29 19:13 30.88305 107.55476 35194 ft 588 kts 84°
2026-04-29 19:13 30.88407 107.64947 35199 ft 592 kts 83°
2026-04-29 19:14 30.88466 107.74469 35200 ft 590 kts 85°
2026-04-29 19:14 30.88523 107.84052 35211 ft 591 kts 85°